Temp
61 61 61 61 61 61 62 62 62 61 61 61 62 61 61 61 62 66 60 61 64 64 64 67 67 65 66 61 62 62 50 47 51 52 56 65 58 63 66 59 62 66 67 71 74
60 60 61 61 61 61 61 61 61 61 61 61 61 61 61 60 64 61 63 64 65 63 62 59 56 59 57 57 58 53 49 50 59 57 55 58 58 59 57 57 58 62 68 71 72
60 60 60 60 60 61 61 61 61 61 61 61 61 61 60 61 59 58 64 64 65 64 63 61 59 56 51 55 55 53 47 56 57 59 58 55 55 59 55 51 58 58 63 66 67
59 59 59 60 60 60 61 60 60 61 61 60 60 60 59 62 48 63 63 63 62 64 62 58 55 50 48 48 55 46 53 53 54 56 54 51 55 53 55 55 62 62 63 63 62
59 59 59 59 59 60 60 60 60 60 60 60 60 59 61 58 55 66 62 64 65 63 58 55 51 50 45 49 50 46 49 52 53 53 52 53 49 50 52 58 61 62 61 60 61
59 58 58 58 59 59 60 60 60 59 60 60 59 58 59 51 64 66 64 63 62 60 58 57 52 54 47 46 45 49 48 48 49 49 50 47 48 50 53 58 58 58 59 60 61
58 58 58 58 58 59 59 59 59 59 60 59 59 63 60 54 66 67 65 62 62 60 54 58 57 50 51 45 50 46 39 44 46 48 47 51 42 44 54 57 55 57 58 60 61
58 57 57 58 58 58 59 58 58 59 59 59 58 62 55 64 69 63 64 61 63 62 57 58 57 51 48 51 46 41 42 35 47 47 49 47 35 49 56 55 53 55 57 59 61
57 57 57 57 57 57 58 57 58 59 59 59 61 57 53 64 59 61 63 55 57 58 58 57 53 48 47 40 37 42 31 35 39 48 46 43 38 48 54 52 51 53 55 57 59
57 57 57 57 57 57 57 57 56 59 62 63 62 54 59 52 57 58 62 59 52 53 50 50 48 42 43 37 24 29 30 34 34 42 43 38 39 46 52 51 51 53 54 55 57
57 57 57 57 57 57 60 60 57 57 57 48 50 51 55 57 59 58 57 56 54 51 41 47 39 34 36 39 37 34 30 29 37 44 40 38 39 44 49 48 46 48 51 53 55
57 57 57 57 55 56 61 54 48 48 48 50 51 51 54 54 48 53 57 46 46 40 44 41 35 40 41 40 37 35 31 30 37 42 36 35 37 44 43 44 45 44 45 47 49
56 56 56 56 54 57 54 49 54 53 50 49 51 50 50 52 46 47 51 47 41 39 38 34 38 42 39 37 33 32 28 27 26 32 35 34 31 35 41 44 43 43 44 45 46
56 56 56 55 54 55 50 53 54 54 44 44 49 49 52 51 44 54 52 45 43 36 37 37 43 39 36 33 35 23 35 31 28 22 19 30 21 29 34 33 35 37 38 39 42
56 55 55 54 55 54 51 54 54 50 33 48 47 55 51 46 44 48 55 46 37 35 35 34 36 34 29 34 35 26 34 30 28 22 22 27 21 22 30 24 27 30 33 36 39
55 55 55 56 57 51 54 53 51 36 33 42 46 43 43 46 44 47 48 50 45 37 41 37 44 39 36 38 37 36 30 32 30 27 19 25 24 19 19 19 24 27 27 29 47
55 54 54 57 53 53 53 50 35 33 43 38 37 42 40 38 39 41 40 38 29 24 27 35 37 41 39 30 36 31 25 21 20 20 16 27 24 19 21 23 22 20 22 33 46
54 52 52 55 55 52 50 47 34 31 33 42 40 40 35 36 38 38 38 34 36 31 27 24 24 32 35 30 23 27 24 15 10 13 17 28 16 20 24 23 22 21 24 32 35
52 56 54 54 52 52 49 34 32 34 38 36 38 33 33 37 35 37 37 33 34 32 22 22 26 39 34 35 31 24 20 27 17 20 16 21 24 27 25 19 19 18 23 26 31
54 53 55 52 52 50 38 35 33 38 38 35 31 31 28 30 31 32 35 37 34 37 36 28 20 36 36 35 33 28 31 18 22 12 13 20 16 9 12 13 16 16 19 24 28
51 45 49 51 50 49 32 32 33 39 39 32 30 29 29 27 31 29 33 38 38 36 37 30 25 30 36 25 20 22 20 23 22 20 13 14 13 16 13 14 14 16 19 22 25
49 34 49 50 39 33 32 32 38 37 39 37 36 32 28 28 27 29 31 36 41 38 28 33 26 23 25 30 33 27 20 22 18 14 17 16 14 19 17 16 16 16 18 22 24
42 46 50 49 34 32 31 32 37 36 37 36 34 35 29 27 24 27 34 41 40 36 29 31 30 24 27 27 33 23 22 22 22 21 13 13 16 22 18 15 16 15 17 20 22
45 34 39 42 42 39 33 32 31 38 37 38 37 37 28 25 28 25 30 37 38 36 35 33 29 24 19 20 23 18 19 22 20 17 14 12 12 14 13 11 13 14 16 18 18
42 34 32 32 35 40 40 36 32 30 36 38 34 31 31 25 24 23 32 36 37 37 35 31 26 23 25 26 25 21 18 16 14 14 13 12 12 12 12 11 11 13 15 14 16
39 36 33 32 38 41 38 35 38 35 35 32 29 32 30 27 31 27 30 33 31 35 33 32 28 23 22 24 22 24 21 20 17 15 16 16 14 18 15 14 11 11 12 12 14
44 44 45 33 35 36 40 38 39 41 39 39 38 34 26 30 36 36 37 36 34 28 27 28 26 25 29 27 25 21 21 18 19 17 15 14 15 18 13 11 10 10 12 12 14
MSLP
1020.96 1020.57 1020.36 1020.07 1019.70 1019.25 1018.86 1018.59 1018.23 1018.05 1017.73 1017.40 1017.06 1016.78 1016.66 1016.44 1015.79 1015.33 1015.31 1016.18 1015.78 1015.54 1015.09 1014.17 1013.32 1013.12 1012.32 1011.84 1011.74 1011.19 1009.69 1007.70 1006.88 1006.54 1005.88 1006.11 1006.86 1007.93 1008.40 1008.67 1008.29 1007.54 1006.62 1006.29 1006.25
1021.06 1020.75 1020.40 1020.27 1019.72 1019.33 1018.72 1018.46 1018.11 1017.90 1017.64 1017.29 1017.06 1016.79 1016.62 1016.51 1015.41 1015.36 1016.10 1015.97 1015.72 1015.69 1015.00 1014.38 1013.75 1013.29 1012.36 1012.05 1011.65 1011.03 1009.24 1007.83 1007.36 1007.53 1007.41 1007.53 1007.66 1007.99 1008.47 1008.26 1007.98 1007.28 1006.92 1006.88 1006.69
1021.22 1020.68 1020.56 1020.24 1019.79 1019.21 1018.69 1018.37 1018.00 1017.71 1017.47 1017.12 1016.90 1016.77 1016.78 1016.41 1015.37 1015.64 1016.14 1016.06 1015.80 1015.68 1015.15 1014.67 1014.26 1013.63 1012.66 1012.14 1011.41 1010.49 1009.39 1008.64 1008.22 1008.25 1008.62 1008.43 1008.45 1008.55 1008.29 1007.51 1007.65 1007.28 1006.82 1006.86 1007.00
1021.27 1020.87 1020.72 1020.21 1019.80 1019.10 1018.51 1018.19 1017.90 1017.48 1017.13 1016.90 1016.71 1016.59 1016.48 1015.85 1015.76 1015.96 1016.23 1016.12 1015.90 1015.45 1014.93 1014.59 1014.20 1013.65 1012.90 1012.08 1011.59 1011.09 1010.34 1009.97 1009.72 1009.60 1009.46 1009.28 1009.25 1008.62 1008.31 1007.28 1007.81 1007.60 1007.47 1007.41 1007.31
1021.51 1021.10 1020.71 1020.02 1019.64 1018.90 1018.43 1018.03 1017.70 1017.28 1016.89 1016.73 1016.62 1016.48 1016.07 1015.41 1015.78 1016.09 1016.21 1015.80 1015.44 1015.09 1014.82 1014.63 1014.24 1013.67 1013.11 1012.42 1012.22 1011.59 1011.12 1010.83 1010.49 1010.34 1010.17 1010.06 1009.51 1008.94 1008.27 1008.18 1007.78 1007.53 1007.43 1007.25 1007.00
1021.45 1021.20 1020.61 1019.98 1019.47 1018.77 1018.36 1017.90 1017.50 1017.09 1016.75 1016.76 1016.66 1016.60 1015.85 1015.62 1016.11 1016.08 1016.09 1015.72 1015.32 1015.03 1014.67 1014.67 1014.39 1014.26 1013.80 1013.19 1012.90 1012.02 1011.81 1011.38 1011.11 1010.72 1010.36 1010.09 1009.32 1009.17 1008.42 1007.92 1007.52 1007.32 1006.89 1006.73 1006.54
1021.43 1021.13 1020.45 1019.95 1019.28 1018.62 1018.27 1017.79 1017.41 1017.07 1016.98 1016.85 1016.77 1016.03 1015.50 1016.37 1016.13 1016.03 1015.78 1015.45 1015.24 1014.96 1014.73 1014.49 1014.44 1014.56 1013.75 1013.29 1013.08 1012.92 1012.19 1011.39 1010.70 1010.23 1009.99 1009.79 1008.93 1008.21 1007.57 1007.41 1007.04 1006.80 1006.52 1006.30 1006.09
1021.42 1021.00 1020.35 1019.75 1019.14 1018.53 1018.14 1017.67 1017.30 1017.09 1017.01 1016.91 1016.85 1016.06 1015.59 1016.16 1015.91 1015.93 1015.68 1015.10 1014.89 1014.42 1014.46 1014.59 1014.66 1014.58 1014.25 1013.74 1013.17 1012.68 1011.85 1010.72 1009.69 1009.78 1009.53 1009.72 1007.91 1007.49 1007.00 1006.78 1006.72 1006.54 1006.21 1005.75 1005.44
1021.30 1020.79 1020.32 1019.71 1019.20 1018.56 1018.08 1017.74 1017.36 1017.10 1017.05 1016.79 1016.40 1016.14 1015.61 1016.06 1016.01 1016.15 1015.58 1015.15 1014.72 1014.64 1014.50 1014.65 1014.67 1014.16 1013.85 1013.55 1012.54 1011.47 1011.40 1010.62 1009.92 1009.85 1009.69 1009.64 1008.17 1007.62 1007.38 1007.13 1006.82 1006.49 1006.16 1005.63 1005.01
1021.18 1020.73 1020.25 1019.79 1019.18 1018.55 1018.12 1017.75 1017.50 1017.29 1016.70 1016.46 1016.36 1016.41 1015.86 1016.43 1016.62 1016.20 1015.70 1015.12 1014.84 1014.44 1014.45 1014.32 1014.22 1013.92 1013.55 1013.64 1013.28 1012.94 1012.30 1011.32 1010.28 1009.82 1009.56 1009.52 1008.43 1007.66 1007.19 1006.78 1006.18 1005.83 1005.60 1005.31 1004.96
1021.13 1020.71 1020.19 1019.74 1019.16 1018.73 1017.76 1017.53 1017.73 1017.13 1016.76 1017.57 1017.60 1017.04 1016.95 1017.27 1016.81 1016.15 1015.89 1014.65 1014.50 1014.11 1014.15 1014.24 1014.34 1014.22 1014.59 1014.61 1014.42 1014.05 1013.25 1011.77 1010.62 1009.74 1009.27 1009.03 1008.29 1007.83 1007.47 1007.41 1007.39 1006.88 1006.02 1005.46 1005.06
1021.11 1020.63 1020.15 1019.74 1019.31 1018.98 1017.99 1018.10 1019.68 1019.96 1018.64 1018.14 1017.97 1017.69 1017.63 1017.80 1016.99 1016.64 1016.34 1015.42 1014.97 1014.46 1014.47 1013.97 1014.19 1014.86 1015.01 1014.71 1014.24 1013.77 1012.74 1011.70 1010.56 1010.12 1010.49 1009.77 1008.67 1008.34 1008.64 1008.73 1008.96 1008.92 1008.33 1007.61 1006.84
1020.99 1020.57 1020.09 1019.74 1019.46 1019.12 1019.26 1019.88 1020.28 1019.99 1018.62 1018.11 1018.01 1017.74 1017.83 1017.95 1017.46 1017.07 1016.95 1016.31 1015.79 1015.09 1015.11 1014.77 1014.97 1014.97 1014.78 1014.41 1014.01 1013.84 1012.91 1012.09 1011.92 1011.91 1011.11 1010.08 1008.85 1009.24 1009.47 1009.58 1010.46 1010.46 1010.07 1009.09 1008.25
1020.86 1020.54 1020.16 1019.66 1019.77 1019.41 1019.84 1020.35 1020.32 1020.04 1018.83 1018.27 1017.63 1018.10 1017.80 1017.63 1017.52 1017.61 1017.66 1017.65 1016.36 1016.30 1016.10 1015.55 1015.32 1015.20 1015.04 1014.89 1014.44 1013.18 1013.14 1012.77 1012.05 1012.27 1011.24 1010.52 1009.91 1010.69 1011.26 1011.96 1012.26 1011.81 1010.99 1010.07 1008.95
1020.75 1020.52 1020.27 1019.84 1019.55 1019.45 1020.41 1020.30 1020.23 1019.84 1019.02 1018.27 1017.97 1018.38 1018.25 1018.01 1018.61 1017.51 1017.53 1017.40 1017.35 1017.40 1017.42 1016.15 1015.73 1015.55 1015.65 1014.88 1014.63 1013.91 1013.22 1012.14 1011.45 1011.73 1011.93 1010.62 1011.76 1013.23 1013.20 1013.55 1013.26 1012.75 1011.99 1010.90 1009.26
1020.60 1020.41 1020.23 1019.75 1019.59 1020.41 1020.42 1020.27 1020.13 1019.40 1018.87 1018.56 1018.41 1018.40 1018.22 1018.32 1018.62 1018.38 1017.71 1017.68 1018.01 1017.53 1016.91 1016.82 1016.34 1016.15 1015.72 1015.40 1014.68 1014.38 1012.82 1010.97 1010.61 1010.68 1010.87 1010.98 1011.91 1014.39 1015.83 1017.04 1016.15 1015.12 1013.44 1011.29 1007.74
1020.46 1020.34 1020.23 1019.96 1019.90 1020.36 1020.38 1019.85 1019.50 1019.46 1019.47 1019.42 1019.27 1019.18 1019.20 1019.11 1018.97 1018.90 1018.10 1017.97 1019.13 1018.67 1017.72 1016.83 1016.01 1016.13 1016.49 1015.74 1014.86 1014.75 1013.16 1011.27 1010.70 1010.53 1011.51 1011.95 1012.76 1016.66 1018.27 1018.94 1019.09 1017.86 1015.61 1012.26 1009.18
1020.38 1020.29 1020.22 1020.23 1020.29 1020.35 1020.12 1019.11 1019.68 1021.07 1020.57 1020.39 1020.17 1019.86 1019.86 1020.33 1019.76 1019.40 1018.89 1019.02 1020.03 1020.40 1019.37 1018.11 1016.50 1016.83 1017.34 1017.44 1017.54 1015.88 1015.75 1015.20 1013.89 1012.94 1012.65 1012.84 1014.87 1016.97 1019.10 1020.26 1020.27 1019.69 1017.50 1013.60 1011.51
1020.37 1019.90 1019.81 1020.09 1020.27 1020.29 1019.59 1019.91 1021.29 1021.64 1021.81 1021.57 1021.09 1020.87 1020.70 1020.93 1020.86 1019.71 1019.58 1020.20 1020.83 1021.24 1021.27 1019.87 1017.83 1017.28 1017.82 1018.12 1018.24 1017.07 1017.01 1017.19 1016.18 1014.78 1014.42 1015.04 1016.23 1017.59 1019.26 1020.01 1020.05 1019.06 1017.47 1015.85 1013.99
1020.15 1019.88 1019.40 1020.11 1020.18 1019.87 1019.56 1021.47 1022.13 1022.38 1022.54 1022.68 1022.38 1022.51 1022.27 1021.86 1021.27 1020.53 1020.28 1020.79 1021.11 1021.39 1021.66 1021.26 1019.77 1017.55 1017.72 1018.68 1019.08 1018.71 1018.74 1017.78 1016.81 1016.18 1015.35 1016.16 1018.52 1021.30 1021.67 1022.17 1021.91 1020.83 1019.97 1018.21 1016.18
1020.31 1020.08 1019.84 1020.08 1020.25 1019.67 1020.84 1022.25 1022.65 1023.08 1023.21 1023.41 1023.19 1023.28 1023.32 1023.22 1022.76 1021.94 1021.23 1021.02 1021.21 1021.38 1021.47 1021.44 1021.17 1018.41 1017.78 1019.84 1020.36 1019.52 1019.54 1019.07 1018.88 1018.47 1018.24 1018.38 1021.12 1023.97 1024.84 1025.13 1024.56 1023.63 1022.25 1020.51 1018.42
1020.22 1020.37 1019.90 1020.17 1020.48 1021.20 1021.88 1022.41 1023.09 1023.13 1023.50 1023.60 1023.58 1023.69 1024.02 1024.08 1023.76 1022.70 1021.80 1021.35 1021.74 1021.84 1021.59 1021.36 1021.25 1019.32 1019.23 1020.55 1020.69 1021.63 1021.55 1020.63 1019.71 1020.05 1020.25 1020.77 1022.64 1024.98 1026.14 1026.37 1025.96 1025.06 1023.92 1022.12 1020.40
1019.91 1019.72 1019.70 1019.80 1020.44 1021.49 1022.60 1022.73 1023.04 1023.11 1023.30 1023.61 1023.58 1023.94 1024.72 1024.71 1024.57 1023.39 1022.24 1021.81 1022.20 1022.17 1022.31 1021.99 1021.14 1019.82 1019.25 1020.84 1020.67 1021.39 1022.28 1021.94 1021.91 1021.64 1022.08 1022.32 1023.19 1025.06 1026.71 1026.83 1026.81 1026.36 1025.26 1023.72 1022.33
1020.02 1019.97 1019.90 1020.00 1020.55 1020.52 1021.68 1022.32 1022.92 1023.17 1023.28 1023.49 1023.57 1023.95 1024.49 1025.02 1024.81 1023.99 1022.68 1022.14 1022.48 1022.70 1022.76 1022.61 1022.05 1021.99 1022.32 1022.97 1023.45 1023.29 1023.22 1022.87 1022.59 1022.58 1023.46 1024.18 1025.08 1026.45 1027.22 1027.43 1027.70 1027.53 1026.72 1025.32 1024.40
1020.08 1020.43 1021.23 1021.03 1020.88 1020.58 1020.85 1021.48 1022.02 1022.79 1023.32 1023.43 1023.52 1023.99 1024.18 1024.79 1024.58 1024.06 1023.08 1022.36 1022.55 1022.89 1022.81 1022.78 1022.31 1022.46 1022.35 1022.87 1023.27 1023.69 1023.84 1024.20 1024.36 1024.97 1025.00 1025.15 1026.35 1028.27 1028.29 1029.11 1028.81 1029.00 1028.50 1026.43 1025.33
1019.71 1020.27 1021.31 1021.22 1020.82 1020.53 1020.96 1021.01 1021.10 1022.11 1022.51 1023.11 1023.36 1023.61 1024.15 1024.47 1024.07 1023.95 1023.68 1023.01 1023.21 1023.10 1022.96 1023.07 1022.49 1022.33 1021.46 1021.87 1022.77 1023.08 1023.87 1024.06 1025.15 1026.06 1025.94 1026.02 1026.24 1028.78 1030.16 1030.16 1029.08 1028.93 1029.49 1028.50 1028.05
1019.53 1019.62 1019.64 1021.22 1020.96 1020.83 1020.25 1020.53 1020.77 1021.42 1022.27 1022.40 1022.82 1023.58 1024.09 1024.04 1024.00 1023.95 1023.78 1023.76 1023.86 1024.02 1023.72 1023.20 1022.69 1022.12 1020.59 1020.26 1021.43 1022.80 1024.05 1025.21 1025.21 1026.79 1027.80 1027.18 1027.74 1029.53 1030.11 1030.44 1030.86 1030.38 1030.32 1030.06 1029.29
Wind_Speed
10 11 13 13 14 15 15 16 16 15 15 14 14 12 11 12 10 2 6 5 8 11 14 13 10 10 9 6 4 3 8 14 19 21 21 15 9 11 9 14 16 19 20 18 17
10 12 13 15 15 16 16 17 16 16 16 15 15 11 9 9 1 7 3 4 7 7 11 11 11 11 6 7 4 7 10 15 14 12 15 15 16 15 17 18 21 18 18 19 19
11 12 13 15 17 17 18 18 16 16 16 16 12 6 7 7 3 4 4 8 9 9 10 9 10 9 7 5 8 6 12 15 16 14 15 18 20 17 19 23 21 22 17 15 16
12 13 14 16 18 19 19 18 16 16 16 11 5 3 3 1 2 4 7 9 10 11 9 9 7 8 7 8 5 11 15 16 17 17 17 20 19 22 21 26 21 22 22 22 22
12 14 15 16 18 19 19 18 17 17 10 4 2 1 4 4 3 4 9 11 11 7 9 9 9 8 9 8 11 17 18 19 17 17 19 20 23 25 25 23 23 23 24 24 23
13 15 16 17 19 20 19 17 19 9 4 3 2 2 0 1 3 5 11 9 10 11 11 9 8 10 12 12 12 11 16 18 18 20 22 23 24 23 21 21 21 22 24 22 22
12 14 16 18 20 21 18 19 11 4 3 2 2 2 3 5 3 9 10 9 6 14 14 13 8 9 7 11 6 11 18 20 20 20 17 17 18 22 22 18 17 17 18 19 20
12 14 16 18 21 20 20 15 4 2 3 2 4 1 3 2 6 10 12 13 15 11 6 7 6 9 10 10 15 18 19 15 6 8 14 12 20 21 15 12 15 17 16 17 18
12 14 16 18 20 19 20 6 3 3 1 2 2 3 4 3 15 10 11 16 16 0 2 2 4 6 4 9 13 9 10 16 22 17 17 11 17 15 15 19 21 20 21 18 18
12 14 16 18 18 19 15 5 2 5 4 2 3 4 3 11 12 10 18 15 4 8 4 2 4 8 5 7 11 17 20 21 22 19 16 16 22 22 17 19 19 16 16 17 16
11 14 16 17 14 17 9 4 4 5 9 6 3 3 7 12 2 14 19 15 6 5 8 5 6 10 14 13 14 16 19 24 24 23 14 15 16 17 14 13 15 17 16 14 15
11 13 16 17 4 13 7 5 4 3 1 1 3 4 2 7 5 18 20 11 7 9 13 2 5 9 9 10 14 22 25 23 24 16 9 14 20 17 2 4 12 15 15 15 15
10 13 16 17 2 2 8 6 4 1 4 2 1 3 5 7 5 16 19 11 8 10 11 3 7 10 10 15 19 21 24 17 21 23 26 19 20 3 5 10 18 17 17 16 16
10 11 15 17 5 2 3 5 1 2 2 8 4 5 7 4 2 11 12 8 8 11 10 3 8 12 14 17 23 20 18 25 25 14 6 4 2 13 13 19 21 22 22 21 19
9 10 12 9 5 2 5 2 3 4 2 8 4 2 5 10 9 16 12 8 10 12 5 8 11 16 14 20 25 16 28 24 21 14 10 15 6 10 16 26 30 30 28 25 22
8 9 11 3 1 2 1 4 4 3 4 5 3 10 10 10 6 12 14 13 1 5 7 7 8 6 12 22 19 27 22 14 6 5 4 11 4 12 15 22 28 30 31 33 13
7 8 6 2 3 1 4 4 4 6 4 8 6 9 11 11 6 14 13 19 16 11 13 13 0 10 16 21 10 21 19 4 2 4 6 10 8 9 21 21 23 27 29 25 19
7 3 1 2 1 3 4 2 7 1 3 3 6 10 6 11 5 13 10 14 16 13 10 9 4 12 11 11 19 15 12 6 7 6 6 9 8 5 23 20 21 20 21 25 23
2 2 2 2 1 3 4 6 2 1 2 7 7 3 4 5 7 9 12 11 9 12 9 8 5 7 6 10 20 12 10 10 6 7 4 4 7 8 28 25 27 28 29 27 23
3 3 2 3 2 4 4 3 2 1 1 1 4 3 5 8 10 9 12 6 9 13 6 5 9 4 6 7 19 8 10 4 4 8 6 6 6 10 26 26 27 30 28 25 23
2 3 3 1 3 1 4 3 2 2 0 2 2 2 2 4 7 6 8 2 10 12 8 4 3 11 4 12 20 13 8 6 3 5 6 6 4 8 17 18 20 21 22 22 22
1 2 3 1 2 2 3 4 2 3 2 2 1 1 0 2 5 3 5 4 10 9 8 4 4 7 3 5 11 20 12 6 5 5 4 5 5 11 16 15 16 18 21 21 21
2 2 2 2 3 2 2 3 2 3 3 3 2 1 2 1 4 3 4 3 7 10 7 7 6 8 1 5 11 9 20 8 1 3 7 6 4 14 15 16 17 18 19 19 21
1 1 3 3 1 5 5 3 4 1 2 2 1 2 2 2 4 6 4 1 5 8 5 3 4 5 6 2 5 13 16 16 2 3 4 3 14 16 17 17 17 18 19 18 17
1 2 1 2 0 3 2 5 5 4 3 4 3 5 3 2 2 4 4 4 4 6 2 3 2 2 3 4 2 9 13 12 10 6 4 9 7 13 13 14 14 13 16 19 20
4 4 1 2 2 5 2 6 6 4 7 4 4 4 5 4 3 2 3 3 3 5 4 3 1 2 4 6 7 9 13 11 7 7 4 6 4 10 8 8 15 16 16 17 16
2 1 1 1 2 2 3 6 6 6 4 1 4 4 3 6 6 5 6 7 5 4 4 4 3 3 6 3 4 1 7 7 5 6 3 6 7 8 8 12 12 14 13 13 13
Wind_Direction
357 356 349 342 341 339 338 333 331 327 324 323 326 331 333 331 305 190 48 8 337 343 314 321 305 325 285 271 268 277 252 260 265 269 275 276 276 279 275 270 280 280 280 285 302
354 351 346 337 337 335 335 332 331 326 324 323 321 319 327 326 113 72 70 311 324 342 327 333 326 327 288 257 236 238 248 259 283 303 296 286 277 278 275 271 272 271 264 271 285
349 350 340 335 334 335 335 332 329 326 325 323 319 321 331 296 185 46 26 310 315 311 314 304 302 301 277 254 227 228 251 276 284 279 275 276 276 277 275 271 271 276 289 303 293
347 343 337 338 334 333 332 330 327 325 323 316 329 347 310 165 348 37 351 326 317 298 298 303 289 286 274 266 268 270 259 273 285 290 280 275 283 274 268 272 281 282 285 283 280
342 339 335 337 331 332 332 331 327 324 321 334 9 35 220 138 68 32 325 322 303 314 311 305 289 293 271 300 295 272 277 283 286 286 277 279 271 274 274 281 278 276 275 276 277
340 336 334 335 333 334 333 331 329 325 358 26 36 276 116 162 6 350 338 324 353 327 301 288 290 307 289 280 276 308 302 293 288 282 280 279 278 277 272 269 271 267 269 272 272
336 333 334 335 335 334 333 332 330 348 22 360 29 315 131 56 345 340 338 323 316 316 296 298 289 272 304 292 344 299 289 288 277 271 266 286 279 258 260 264 262 263 268 270 267
333 331 335 335 335 332 335 333 328 348 327 19 340 327 75 105 352 354 339 328 327 311 269 284 273 269 271 290 281 270 268 279 261 261 296 243 279 284 286 283 286 286 275 275 271
328 329 335 336 335 332 339 331 334 28 312 274 267 281 79 160 353 346 343 330 325 344 308 273 250 269 245 268 291 281 284 303 297 296 289 252 285 293 302 295 291 279 274 274 274
324 330 334 337 337 332 338 316 335 245 226 234 241 238 86 347 342 317 357 336 319 319 182 250 268 277 233 328 314 311 302 298 296 307 290 275 277 285 300 290 290 289 284 281 274
325 329 332 336 337 335 326 239 230 173 40 40 354 338 332 343 305 358 353 335 326 237 357 6 293 11 347 322 313 301 290 286 287 294 289 272 276 290 329 15 5 355 338 312 285
322 327 332 338 356 342 330 44 39 324 135 138 301 291 321 332 321 7 353 8 343 12 350 359 45 341 329 304 311 316 304 295 292 322 315 291 287 299 95 46 27 360 347 334 321
318 329 333 337 259 348 56 50 334 296 259 133 37 341 343 338 5 1 8 335 2 355 359 6 343 323 305 314 325 323 305 316 318 317 304 284 277 200 3 29 2 349 340 331 319
316 330 335 331 246 15 51 0 281 281 198 354 8 42 347 333 125 18 12 3 6 347 349 338 336 334 316 315 332 314 335 311 301 298 270 2 57 40 13 359 351 348 341 329 314
312 326 337 356 323 28 342 340 179 239 10 359 19 327 34 44 320 5 353 4 3 346 329 8 338 344 329 330 331 307 319 305 287 263 265 254 231 22 17 358 350 346 339 325 307
305 324 325 222 198 58 277 151 220 50 9 7 2 360 6 20 18 350 358 22 53 325 296 299 301 314 328 330 329 337 321 296 277 185 170 28 256 39 15 353 343 340 335 326 342
303 327 309 311 3 28 178 211 24 65 360 335 336 343 331 355 352 4 354 31 31 344 7 325 47 345 6 335 339 345 347 342 69 43 34 358 67 64 12 358 350 336 328 333 6
318 304 45 35 337 194 226 258 60 122 303 4 329 329 3 2 13 353 1 21 32 3 300 346 333 9 5 18 342 346 1 12 342 2 344 31 11 88 13 355 348 338 336 360 3
306 234 230 124 226 215 258 49 169 216 0 326 309 310 2 360 341 352 27 16 31 26 359 332 292 3 45 358 12 333 8 313 287 219 263 29 9 148 349 351 349 354 357 357 359
294 279 201 359 209 240 71 128 141 51 34 333 352 23 343 330 352 10 16 28 360 15 9 345 293 8 29 326 23 10 1 15 329 350 20 71 60 341 346 343 345 351 349 349 354
263 288 92 15 229 42 97 135 184 141 105 313 0 17 312 321 323 347 358 40 11 353 334 291 238 319 344 26 27 13 21 351 259 11 334 327 53 5 348 345 343 342 345 349 354
260 267 94 195 66 46 103 133 179 152 172 235 252 89 149 337 284 303 320 341 14 352 329 33 288 293 41 156 78 37 13 356 336 8 21 272 69 32 6 353 352 347 350 352 358
236 280 141 250 141 97 138 111 188 148 193 208 209 170 84 247 287 251 310 23 7 7 3 341 353 316 141 171 20 27 11 3 70 276 28 328 49 33 6 359 1 358 353 356 2
259 305 344 54 321 129 149 150 153 152 208 223 192 157 128 250 219 299 294 332 6 11 359 288 9 34 62 54 345 4 5 13 354 33 319 25 309 1 0 352 356 359 359 1 11
340 235 328 190 302 115 96 151 136 182 230 217 210 234 162 268 254 243 279 303 126 12 39 359 338 283 232 254 27 38 13 15 48 24 21 320 346 5 353 355 350 2 9 6 10
171 156 174 79 142 128 201 203 169 169 162 215 223 150 169 223 248 294 327 6 17 342 12 358 350 289 248 215 232 27 30 356 21 34 20 310 358 35 25 2 1 7 16 11 11
154 107 237 143 144 160 205 172 185 154 193 239 202 183 209 241 284 278 283 285 271 317 333 332 325 303 323 346 189 189 24 30 328 34 337 15 335 15 23 28 18 1 9 8 2